Change the Weather History Date:

Monday, May 27, 2013

  Actual Average Record
Temperature  
Mean Temperature 66 °F -  
Max Temperature 73 °F 70 °F 87 °F (1997)
Min Temperature 60 °F 61 °F 51 °F (2008)
Cooling Degree Days 2    
Growing Degree Days 16 (Base 50)    
Moisture  
Dew Point 57 °F    
Average Humidity 75    
Maximum Humidity 100    
Minimum Humidity 49    
Precipitation  
Precipitation 0.00 in - - ()
Sea Level Pressure  
Sea Level Pressure 29.95 in    
Wind  
Wind Speed 6 mph (South)    
Max Wind Speed 14 mph    
Max Gust Speed -    
Visibility 10 miles    
Events      
Averages and records for this station are not official NWS values.
T = Trace of Precipitation, MM = Missing Value Source: NWS Daily Summary

Daily Weather History Graph

Daily Weather History Graph

Search for Another Location

Airport or City:

Trip Planner

Search our weather history database for the weather conditions in past years. The results will help you decide how hot, cold, wet, or windy it might be!

Date:

Astronomy

May. 27, 2013 Rise Set
Actual Time 5:44 AM PDT 7:54 PM PDT
Civil Twilight 5:15 AM PDT 8:23 PM PDT
Nautical Twilight 4:41 AM PDT 8:58 PM PDT
Astronomical Twilight 4:03 AM PDT 9:35 PM PDT
Moon 10:41 PM PDT (5/27) 8:24 AM PDT (5/27)
Length of Visible Light 15h 07m
Length of Day
14h 10m
Waning Gibbous, 90% of the Moon is Illuminated
May 27
Waning Gibbous
May 31
Last Quarter
Jun 8
New
Jun 16
First Quarter
Jun 23
Full

Hourly Weather History & Observations

Time (PDT) Temp. Dew Point Humidity Pressure Visibility Wind Dir Wind Speed Gust Speed Precip Events Conditions
12:58 AM 60.3 °F 59.9 °F 99% 30.01 in 10.0 mi SSE 5.8 mph - N/A   Clear
1:28 AM 60.8 °F 60.8 °F 100% 30.00 in 10.0 mi SSE 4.6 mph - N/A   Mostly Cloudy
1:58 AM 61.0 °F 60.6 °F 99% 30.01 in 10.0 mi SE 3.5 mph - N/A   Overcast
2:33 AM 62.6 °F 59.0 °F 88% 29.99 in 10.0 mi South 3.5 mph - N/A   Mostly Cloudy
2:58 AM 62.1 °F 59.9 °F 93% 29.99 in 10.0 mi South 4.6 mph - N/A   Mostly Cloudy
3:58 AM 61.5 °F 59.2 °F 92% 29.98 in 10.0 mi ESE 5.8 mph - N/A   Overcast
4:58 AM 61.5 °F 58.6 °F 90% 29.96 in 10.0 mi East 5.8 mph - N/A   Mostly Cloudy
5:53 AM 60.8 °F 57.2 °F 88% 29.95 in 10.0 mi SE 4.6 mph - N/A   Scattered Clouds
5:58 AM 60.4 °F 57.0 °F 88% 29.96 in 10.0 mi ESE 4.6 mph - N/A   Scattered Clouds
6:58 AM 61.9 °F 55.4 °F 79% 29.98 in 10.0 mi SSE 3.5 mph - N/A   Clear
7:58 AM 64.0 °F 53.1 °F 67% 29.98 in 10.0 mi Variable 2.3 mph - N/A   Partly Cloudy
8:23 AM 64.4 °F 53.6 °F 68% 29.97 in 10.0 mi WSW 3.5 mph - N/A   Mostly Cloudy
8:58 AM 64.2 °F 52.9 °F 67% 29.99 in 9.0 mi Variable 1.2 mph - N/A   Mostly Cloudy
9:43 AM 66.2 °F 53.6 °F 64% 29.97 in 9.0 mi SW 4.6 mph - N/A   Scattered Clouds
9:58 AM 68.0 °F 52.9 °F 58% 29.98 in 10.0 mi SSE 5.8 mph - N/A   Scattered Clouds
10:13 AM 69.8 °F 51.8 °F 53% 29.97 in 10.0 mi Variable 3.5 mph - N/A   Mostly Cloudy
10:43 AM 69.8 °F 51.8 °F 53% 29.97 in 10.0 mi Variable 6.9 mph - N/A   Mostly Cloudy
10:58 AM 70.0 °F 52.3 °F 53% 29.97 in 10.0 mi South 6.9 mph - N/A   Partly Cloudy
11:58 AM 71.4 °F 52.7 °F 52% 29.96 in 10.0 mi SW 9.2 mph - N/A   Partly Cloudy
12:58 PM 72.1 °F 52.3 °F 50% 29.94 in 10.0 mi SW 9.2 mph - N/A   Partly Cloudy
1:58 PM 73.4 °F 52.9 °F 49% 29.93 in 10.0 mi SW 12.7 mph - N/A   Clear
2:58 PM 72.1 °F 53.2 °F 51% 29.92 in 10.0 mi SW 13.8 mph - N/A   Clear
3:58 PM 71.6 °F 53.8 °F 53% 29.91 in 10.0 mi SW 12.7 mph - N/A   Clear
4:58 PM 70.5 °F 54.1 °F 56% 29.90 in 10.0 mi South 11.5 mph - N/A   Clear
5:58 PM 69.6 °F 55.8 °F 61% 29.88 in 10.0 mi South 12.7 mph - N/A   Clear
6:58 PM 66.2 °F 57.2 °F 73% 29.89 in 10.0 mi South 10.4 mph - N/A   Clear
7:58 PM 64.2 °F 60.3 °F 87% 29.88 in 10.0 mi South 6.9 mph - N/A   Clear
8:58 PM 63.5 °F 61.9 °F 94% 29.90 in 10.0 mi South 4.6 mph - N/A   Clear
9:58 PM 63.3 °F 63.0 °F 99% 29.92 in 10.0 mi SSW 3.5 mph - N/A   Clear
10:58 PM 63.1 °F 62.8 °F 99% 29.91 in 10.0 mi ESE 5.8 mph - N/A   Clear
11:58 PM 62.4 °F 62.4 °F 100% 29.90 in 10.0 mi SSE 6.9 mph - N/A   Clear